Flag for Australia Weather past 2 weeks in Darwin, Northern Territory, Australia

Now
73 °F

Clear.


Feels Like: 68 °F
Forecast: 73 / 90 °F
Wind: 5 mph from Southeast

Location: Darwin Airport

Current Time: Apr 26, 2015 at 5:34:52 AM

Latest Report: Apr 26, 2015 at 5:00 AM


Visibility: 10 mi

Pressure: 29.86 "Hg

Humidity: 100%

Dew point: 73 °F

Location of DarwinLocation

Historic Weather in Darwin — Graph

°F

Darwin temperature yesterday

Maximum temperature yesterday: 91 °F (at 12:30 PM)
Minimum temperature yesterday: 75 °F (at 4:00 AM)
Average temperature yesterday: 83 °F

Past Weeks' High & Low Weather Summary

 TemperatureHumidityPressure
High93 °F (Apr 11, 1:00 PM)100% (Apr 12, 6:30 AM)29.98 "Hg (Apr 12, 6:30 AM)
Low73 °F (Apr 11, 5:00 AM)38% (Apr 21, 12:30 PM)29.74 "Hg (Apr 23, 3:30 PM)
Average84 °F69%29.85 "Hg
* Reported Apr 11 4:30 AM — Apr 26 4:30 AM, Darwin, Weather by CustomWeather, © 2015

Note: Actual official high and low records may vary slightly from our data, if they occured in-between our weather recording intervals... More about our weather records

Advertising

Darwin weather history for previous 24 hours

 ConditionsComfort  
Time TempWeatherWind HumidityBarometerVisibility
4:30 AM
Sun, Apr 26
73 °FClear.5 mph94%29.86 "Hg10 mi
4:00 AM75 °FClear.6 mph94%29.86 "Hg10 mi
3:30 AM75 °FClear.6 mph94%29.86 "Hg10 mi
3:00 AM75 °FClear.6 mph94%29.86 "Hg10 mi
2:30 AM77 °FClear.6 mph89%29.86 "Hg10 mi
2:00 AM79 °FClear.6 mph89%29.86 "Hg10 mi
1:30 AM77 °FClear.7 mph89%29.86 "Hg10 mi
1:00 AM77 °FClear.6 mph89%29.89 "Hg10 mi
12:30 AM79 °FClear.6 mph84%29.89 "Hg10 mi
12:00 AM79 °FClear.6 mph84%29.86 "Hg10 mi
11:30 PM
Sat, Apr 25
79 °FClear.6 mph84%29.89 "Hg10 mi
11:00 PM79 °FClear.5 mph79%29.89 "Hg10 mi
10:30 PM81 °FClear.6 mph74%29.89 "Hg10 mi
10:00 PM81 °FClear.5 mph74%29.89 "Hg10 mi
9:30 PM79 °FClear.5 mph79%29.86 "Hg10 mi
9:00 PM81 °FClear.6 mph74%29.86 "Hg10 mi
8:30 PM81 °FClear.7 mph74%29.86 "Hg10 mi
8:00 PM82 °FClear.8 mph70%29.83 "Hg10 mi
7:30 PM82 °FClear.8 mph70%29.83 "Hg10 mi
7:00 PM84 °FSunny.8 mph62%29.83 "Hg10 mi
6:30 PM84 °FPartly sunny.9 mph62%29.80 "HgN/A
6:00 PM86 °FPartly sunny.10 mph59%29.80 "HgN/A
5:30 PM88 °FPartly sunny.10 mph55%29.80 "HgN/A
5:00 PM90 °FScattered clouds.10 mph55%29.77 "HgN/A
4:30 PM88 °FScattered clouds.10 mph55%29.77 "HgN/A
4:00 PM88 °FScattered clouds.10 mph55%29.77 "HgN/A
3:30 PM90 °FScattered clouds.13 mph55%29.77 "HgN/A
3:00 PM88 °FSunny.9 mph59%29.77 "Hg10 mi
2:30 PM90 °FSunny.12 mph59%29.77 "Hg10 mi
2:00 PM91 °FSunny.8 mph38%29.80 "Hg10 mi
1:30 PM91 °FSunny.13 mph38%29.80 "Hg10 mi
1:00 PM91 °FSunny.9 mph38%29.80 "Hg10 mi
12:30 PM91 °FScattered clouds.8 mph46%29.83 "HgN/A
12:00 PM90 °FPartly sunny.9 mph52%29.83 "HgN/A
11:30 AM86 °FPartly sunny.9 mph62%29.83 "HgN/A
10:30 AM86 °FPartly sunny.8 mph66%29.86 "HgN/A
10:00 AM86 °FPartly sunny.9 mph70%29.86 "HgN/A
9:30 AM84 °FPartly sunny.9 mph66%29.86 "HgN/A
9:00 AM82 °FPartly sunny.8 mph70%29.86 "HgN/A
8:30 AM81 °FScattered clouds.8 mph79%29.86 "HgN/A
8:00 AM79 °FScattered clouds.6 mph84%29.83 "HgN/A
7:30 AM77 °FScattered clouds.6 mph89%29.83 "HgN/A
7:00 AM77 °FClear.6 mph89%29.83 "Hg10 mi
6:30 AM75 °FPassing clouds.7 mph94%29.80 "HgN/A
6:00 AM75 °FPassing clouds.6 mph94%29.80 "HgN/A
5:30 AM75 °FPassing clouds.7 mph94%29.80 "HgN/A
5:00 AM75 °FClear.5 mph94%29.80 "Hg10 mi
Weather by CustomWeather, © 2015

See weather overviewHow to use our weather pages